TimeCDT,TemperatureF,Dew PointF,Humidity,Sea Level PressureIn,VisibilityMPH,Wind Direction,Wind SpeedMPH,Gust SpeedMPH,PrecipitationIn,Events,Conditions,WindDirDegrees,DateUTC
12:15 AM,57.6,53.2,85,29.77,10.0,SW,5.8,-,N/A,,Overcast,220,2012-10-23 05:15:00
12:35 AM,56.8,53.6,89,29.77,7.0,SSW,8.1,-,N/A,,Overcast,210,2012-10-23 05:35:00
12:55 AM,56.3,53.6,91,29.78,4.0,SW,9.2,-,N/A,,Overcast,220,2012-10-23 05:55:00
1:15 AM,56.3,53.8,91,29.78,4.0,SSW,10.4,-,N/A,,Overcast,210,2012-10-23 06:15:00
1:35 AM,56.3,54.1,92,29.77,0.5,South,12.7,-,N/A,Fog,Fog,190,2012-10-23 06:35:00
1:55 AM,55.6,54.0,94,29.78,0.8,SW,10.4,-,N/A,,Overcast,220,2012-10-23 06:55:00
2:15 AM,55.6,54.0,94,29.78,0.5,SSW,10.4,-,N/A,Fog,Fog,200,2012-10-23 07:15:00
2:35 AM,55.2,53.6,94,29.77,1.5,SSW,12.7,-,N/A,,Overcast,200,2012-10-23 07:35:00
2:55 AM,55.0,53.6,95,29.78,1.5,SW,8.1,-,N/A,,Overcast,220,2012-10-23 07:55:00
3:15 AM,55.0,53.6,95,29.77,1.5,SW,8.1,-,N/A,,Overcast,220,2012-10-23 08:15:00
3:35 AM,54.9,53.6,96,29.75,0.8,SSW,8.1,-,N/A,,Overcast,200,2012-10-23 08:35:00
3:55 AM,54.5,53.2,96,29.76,1.8,SW,8.1,-,N/A,,Overcast,220,2012-10-23 08:55:00
4:15 AM,54.7,53.6,96,29.76,1.2,SW,4.6,-,N/A,,Overcast,220,2012-10-23 09:15:00
4:35 AM,54.5,53.4,96,29.75,0.5,SSW,6.9,-,N/A,Fog,Fog,200,2012-10-23 09:35:00
4:55 AM,54.5,53.1,95,29.76,0.5,SSW,6.9,-,N/A,Fog,Fog,200,2012-10-23 09:55:00
5:15 AM,54.1,52.9,95,29.75,0.5,South,8.1,-,N/A,Fog,Fog,180,2012-10-23 10:15:00
5:35 AM,54.1,52.9,95,29.75,0.5,South,6.9,-,N/A,Fog,Fog,190,2012-10-23 10:35:00
5:55 AM,54.1,52.9,95,29.75,1.0,South,8.1,-,N/A,,Overcast,190,2012-10-23 10:55:00
6:35 AM,53.8,52.7,96,29.76,1.2,SSW,5.8,-,N/A,,Overcast,210,2012-10-23 11:35:00
6:55 AM,53.6,52.3,95,29.76,1.5,SW,5.8,-,N/A,,Overcast,220,2012-10-23 11:55:00
7:15 AM,53.6,52.5,96,29.76,0.5,SSW,4.6,-,N/A,Fog,Fog,200,2012-10-23 12:15:00
7:35 AM,53.8,52.7,96,29.76,0.2,Calm,Calm,-,N/A,Fog,Fog,0,2012-10-23 12:35:00
7:55 AM,53.8,52.7,96,29.75,0.2,SSE,3.5,-,N/A,Fog,Fog,160,2012-10-23 12:55:00
8:15 AM,53.8,52.7,96,29.75,0.2,Calm,Calm,-,N/A,Fog,Fog,0,2012-10-23 13:15:00
8:35 AM,54.1,53.1,96,29.76,0.2,Calm,Calm,-,N/A,Fog,Fog,0,2012-10-23 13:35:00
8:55 AM,54.5,53.1,95,29.77,0.5,Calm,Calm,-,N/A,Fog,Fog,0,2012-10-23 13:55:00
9:15 AM,54.7,53.6,96,29.76,0.8,ESE,4.6,-,N/A,,Overcast,120,2012-10-23 14:15:00
9:35 AM,55.0,53.8,96,29.76,1.0,ESE,3.5,-,N/A,,Overcast,110,2012-10-23 14:35:00
9:55 AM,55.6,54.5,96,29.76,1.0,ESE,4.6,-,N/A,,Overcast,110,2012-10-23 14:55:00
10:15 AM,56.7,55.6,96,29.75,1.8,SE,6.9,-,N/A,,Overcast,130,2012-10-23 15:15:00
10:55 AM,58.3,57.2,96,29.74,3.0,SE,4.6,-,N/A,,Overcast,130,2012-10-23 15:55:00
11:15 AM,59.2,57.9,96,29.73,4.0,SE,6.9,-,N/A,,Overcast,130,2012-10-23 16:15:00
11:35 AM,60.1,58.8,96,29.72,4.0,SE,5.8,-,N/A,,Overcast,130,2012-10-23 16:35:00
11:55 AM,60.8,59.0,94,29.72,5.0,SE,5.8,-,N/A,,Overcast,130,2012-10-23 16:55:00
12:15 PM,62.6,58.8,87,29.71,7.0,SE,4.6,-,N/A,,Overcast,140,2012-10-23 17:15:00
12:35 PM,63.5,59.0,85,29.71,7.0,SSE,8.1,-,N/A,,Overcast,160,2012-10-23 17:35:00
12:55 PM,64.4,59.2,83,29.70,7.0,SSE,6.9,-,N/A,,Overcast,150,2012-10-23 17:55:00
1:15 PM,65.7,59.9,82,29.69,7.0,South,10.4,-,N/A,,Overcast,170,2012-10-23 18:15:00
1:35 PM,66.2,60.1,81,29.69,7.0,SSE,8.1,-,N/A,,Overcast,150,2012-10-23 18:35:00
1:55 PM,67.1,60.4,79,29.68,7.0,South,9.2,-,N/A,,Overcast,170,2012-10-23 18:55:00
2:15 PM,67.5,60.8,79,29.69,10.0,South,6.9,-,N/A,,Overcast,180,2012-10-23 19:15:00
2:55 PM,68.7,61.0,76,29.68,10.0,Calm,Calm,-,N/A,,Overcast,0,2012-10-23 19:55:00
3:15 PM,70.9,61.5,72,29.66,10.0,Calm,Calm,-,N/A,,Mostly Cloudy,0,2012-10-23 20:15:00
3:35 PM,71.8,61.5,70,29.66,10.0,South,3.5,-,N/A,,Mostly Cloudy,170,2012-10-23 20:35:00
3:55 PM,71.6,61.7,71,29.66,10.0,Calm,Calm,-,N/A,,Scattered Clouds,0,2012-10-23 20:55:00
4:15 PM,72.0,61.9,70,29.66,10.0,Calm,Calm,-,N/A,,Clear,0,2012-10-23 21:15:00
4:35 PM,71.1,61.7,72,29.68,10.0,NW,4.6,-,N/A,,Scattered Clouds,320,2012-10-23 21:35:00
4:55 PM,72.0,61.9,70,29.68,10.0,NNW,4.6,-,N/A,,Scattered Clouds,330,2012-10-23 21:55:00
5:15 PM,72.5,61.7,69,29.67,10.0,Calm,Calm,-,N/A,,Clear,0,2012-10-23 22:15:00
5:35 PM,71.6,61.7,71,29.67,10.0,NNW,3.5,-,N/A,,Clear,340,2012-10-23 22:35:00
5:55 PM,70.0,61.5,74,29.67,10.0,North,4.6,-,N/A,,Clear,360,2012-10-23 22:55:00
6:15 PM,68.7,61.0,76,29.66,10.0,NE,3.5,-,N/A,,Clear,40,2012-10-23 23:15:00
6:35 PM,67.1,60.3,79,29.67,10.0,North,4.6,-,N/A,,Clear,10,2012-10-23 23:35:00
6:55 PM,66.6,60.4,81,29.69,10.0,North,9.2,-,N/A,,Clear,360,2012-10-23 23:55:00
7:15 PM,65.3,59.9,83,29.70,10.0,North,9.2,-,N/A,,Clear,10,2012-10-24 00:15:00
7:35 PM,64.4,59.4,84,29.71,10.0,NNW,9.2,-,N/A,,Clear,340,2012-10-24 00:35:00
7:55 PM,64.0,59.2,84,29.71,10.0,North,9.2,-,N/A,,Clear,350,2012-10-24 00:55:00
8:15 PM,62.8,58.5,86,29.72,7.0,North,9.2,-,N/A,,Clear,350,2012-10-24 01:15:00
8:35 PM,61.9,57.9,87,29.72,7.0,NNW,8.1,-,N/A,,Clear,340,2012-10-24 01:35:00
8:55 PM,61.2,57.4,87,29.73,7.0,NNW,9.2,-,N/A,,Clear,330,2012-10-24 01:55:00
9:15 PM,60.6,56.8,87,29.74,5.0,NNW,6.9,-,N/A,,Clear,330,2012-10-24 02:15:00
9:35 PM,59.4,56.3,90,29.74,5.0,NNW,5.8,-,N/A,,Clear,330,2012-10-24 02:35:00
9:55 PM,59.4,56.5,90,29.74,5.0,NNW,8.1,-,N/A,,Clear,340,2012-10-24 02:55:00
10:15 PM,59.0,56.3,91,29.75,5.0,NNW,8.1,-,N/A,,Clear,330,2012-10-24 03:15:00
10:35 PM,58.5,55.8,91,29.75,5.0,NNW,8.1,-,N/A,,Clear,340,2012-10-24 03:35:00
10:55 PM,58.1,55.6,91,29.77,4.0,NNW,8.1,-,N/A,,Clear,340,2012-10-24 03:55:00
11:15 PM,58.1,55.6,91,29.77,4.0,North,8.1,-,N/A,,Clear,350,2012-10-24 04:15:00
11:35 PM,57.6,55.4,92,29.77,4.0,NNE,5.8,-,N/A,,Clear,20,2012-10-24 04:35:00
11:55 PM,57.2,55.2,93,29.76,3.0,NNE,4.6,-,N/A,,Clear,30,2012-10-24 04:55:00